Lid_Strength_Index
3 3 3 3 3 3 3 3 3 3 3 3 3 2 2 2 2 2 2 2 1 1 1 1 1 1 2 4 6 3 0 1 2 3 5 5 7 7 8 7 6 8 7 6 6 6 5
3 3 3 3 3 3 3 3 3 3 3 2 2 2 2 2 2 2 2 2 2 2 2 1 1 1 3 6 3 3 3 3 3 4 5 5 6 6 7 7 7 6 6 7 7 6 5
3 3 3 3 3 3 3 3 3 3 3 3 3 3 3 2 2 2 2 2 2 2 1 1 0 1 4 5 3 2 2 4 3 4 5 4 4 6 7 8 6 6 8 7 7 6 7
3 3 3 3 3 3 3 3 3 2 2 3 2 2 3 3 2 2 2 2 2 2 1 0 0 2 5 3 2 3 3 4 3 3 4 3 4 5 7 6 8 9 8 10 7 6 6
3 3 3 3 2 3 2 2 2 2 2 2 2 2 2 3 3 2 2 2 2 1 0 0 2 2 6 2 5 4 4 5 4 4 4 4 5 7 7 9 10 10 13 11 9 6 7
3 3 2 2 2 2 3 3 3 3 2 2 2 3 2 3 3 2 2 2 1 2 1 0 1 5 3 6 5 4 3 4 5 5 5 6 6 8 8 10 14 12 11 10 11 8 6
3 3 3 3 3 3 3 3 3 3 3 3 3 3 3 3 3 3 3 1 4 4 2 5 5 5 6 4 3 5 4 5 5 6 8 7 9 10 8 8 8 9 10 11 9 8 7
3 3 3 3 3 3 3 3 3 3 3 3 3 3 3 3 3 3 3 4 5 4 7 4 4 5 4 4 7 5 4 7 7 9 7 8 10 7 7 7 8 9 10 11 9 8 8
3 3 3 4 4 4 4 4 4 3 4 4 3 3 3 3 3 3 2 4 2 2 7 6 5 6 5 5 7 6 5 6 8 9 9 10 8 7 8 9 9 9 10 11 11 9 8
3 3 3 3 3 3 3 3 3 3 3 4 4 3 3 4 4 3 3 2 2 2 10 8 8 6 5 5 7 5 4 6 7 9 8 9 7 8 8 9 8 11 8 9 10 11 13
4 3 3 4 3 3 3 3 3 3 4 4 4 4 4 4 4 4 3 2 2 3 16 8 7 4 5 7 6 6 4 6 9 9 8 10 9 8 9 8 7 9 7 8 9 11 11
4 4 3 3 3 3 3 3 3 3 4 4 4 4 4 3 3 2 2 2 2 11 16 10 7 8 8 6 6 5 5 3 4 7 7 7 5 6 7 6 7 6 8 8 8 10 14
4 4 3 3 3 3 3 3 3 3 4 4 4 4 5 3 4 2 2 4 10 14 8 10 9 7 7 8 7 6 7 7 8 10 10 8 8 6 7 10 8 8 9 14 15 14 15
4 4 3 3 3 3 3 3 3 3 4 4 5 5 4 4 2 2 4 8 14 10 9 7 8 7 9 7 7 7 7 9 7 8 10 12 13 8 7 8 10 10 11 15 18 16 14
4 3 3 3 3 2 3 3 3 4 4 4 5 2 3 2 2 3 7 12 12 9 8 9 8 9 9 8 8 8 8 8 7 7 10 11 11 8 7 7 8 10 11 9 13 12 14
4 3 3 3 2 2 3 3 3 3 4 5 5 3 3 1 1 4 8 11 9 8 8 8 10 8 10 9 9 9 9 7 7 6 6 8 12 8 7 6 6 8 7 13 13 18 18
4 4 3 3 2 3 3 3 3 4 4 5 4 5 2 1 3 7 11 9 9 7 7 8 9 9 9 10 9 9 9 7 6 7 6 7 9 10 8 9 10 9 12 12 12 15 19
4 3 3 2 2 2 3 3 3 4 4 4 4 8 2 3 9 7 9 8 8 8 7 7 6 7 9 9 9 9 9 8 6 6 9 7 10 13 11 7 6 8 9 12 15 15 12
4 3 3 2 2 3 3 4 4 4 4 5 5 5 2 3 9 9 8 8 8 8 8 7 7 7 7 8 11 9 8 6 6 7 9 9 11 15 13 9 9 10 10 11 12 11 14
4 3 2 2 2 3 3 4 4 4 4 4 5 8 5 5 5 8 9 10 9 7 8 6 7 6 7 8 7 9 9 7 6 7 6 8 11 13 16 13 12 14 11 10 10 16 15
4 3 2 2 3 3 3 4 4 4 4 4 4 7 6 9 8 8 8 9 10 10 7 6 7 7 8 11 9 10 8 8 7 7 8 10 14 11 11 10 9 10 12 11 12 10 13
4 4 2 2 3 3 4 3 4 4 4 4 7 8 7 8 7 7 8 9 10 9 8 8 8 8 7 9 9 10 9 9 10 8 9 9 14 12 14 10 10 11 9 11 11 10 10
5 4 3 3 4 4 4 4 3 4 4 5 5 5 8 9 7 8 8 9 10 8 7 6 7 8 8 7 6 5 5 6 7 10 11 12 13 15 16 11 10 14 10 9 9 8 9
5 4 3 4 4 4 5 4 4 4 4 4 5 5 9 12 9 8 8 8 9 8 8 7 6 7 5 3 4 5 6 6 7 8 8 12 13 14 16 13 19 10 7 8 8 8 7
5 5 5 4 5 5 5 5 5 4 4 5 4 5 8 11 9 9 7 8 8 7 7 6 5 4 3 5 9 10 9 10 9 8 9 9 12 15 17 16 12 10 11 11 12 12 8
6 6 6 5 5 5 5 5 5 5 4 4 4 2 7 10 9 8 8 7 9 9 8 6 5 3 4 7 10 14 15 12 15 11 9 10 10 14 15 18 20 13 9 7 7 13 8
6 7 7 6 6 6 5 5 5 5 5 5 5 2 5 10 7 6 9 8 7 9 11 8 6 6 4 9 13 13 13 9 14 15 13 14 14 16 15 17 14 10 8 7 15 13 8
7 7 8 7 6 6 6 5 5 5 5 5 6 4 5 8 7 6 5 6 6 8 11 8 8 8 8 11 12 11 12 11 12 10 14 15 16 16 15 17 19 8 9 13 9 7 7
8 8 8 7 6 6 6 5 5 4 4 5 8 4 3 5 6 4 5 4 4 5 7 7 7 8 7 10 10 10 11 10 12 15 10 15 13 14 14 14 8 7 9 7 7 8 7